Terug naar catalogus

ONEWEB-0537

ActiefCommunicatiePO
NORAD 56046·PAYLOAD·🇬🇧 United Kingdom

Gelanceerd Mar 26, 2023 vanaf Satish Dhawan Space Centre

Loading…

Volgende Passages (komende 24 uur)

TLE

VersSource: CelesTrak SupGP

Epoch: Sep 14, 2026, 14:07 UTC

1 56046C 23043A   26257.58833750 -.00000097  00000+0 -25279-3 0  2576
2 56046  87.9148 211.0199 0001927  83.4001  17.7261 13.16590940    11

Volg ONEWEB-0537 in realtime met AllMySat

Download on the App Store